Flag for Germany Weather past 2 weeks in Coburg, Bavaria, Germany

Now
46 °F

Drizzle. Low clouds.


Feels Like: 46 °F
Forecast: 41 / 50 °F
Wind: 2 mph from South

Location: Bamberg

Current Time: Dec 18, 2014 at 8:33:01 AM

Latest Report: Dec 18, 2014 at 8:00 AM


Visibility: 11 mi

Pressure: 29.98 "Hg

Humidity: 94%

Dew point: 44 °F

Location of CoburgLocation

Historic Weather in Coburg — Graph

°F

Coburg temperature yesterday

Maximum temperature yesterday: 40 °F (at 11:00 PM)
Minimum temperature yesterday: 31 °F (at 3:00 AM)
Average temperature yesterday: 35 °F

Past Weeks' High & Low Weather Summary

 TemperatureHumidityPressure
High53 °F (Dec 13, 2:00 PM)100% (Dec 4, 11:00 PM)30.50 "Hg (Dec 4, 11:00 PM)
Low24 °F (Dec 9, 1:00 AM)62% (Dec 15, 3:00 PM)29.69 "Hg (Dec 12, 7:00 PM)
Average39 °F93%30.06 "Hg
* Reported Dec 3 7:00 AM — Dec 18 7:00 AM, Coburg, Weather by CustomWeather, © 2014

Note: Actual official high and low records may vary slightly from our data, if they occured in-between our weather recording intervals... More about our weather records

Advertising

Coburg weather history for previous 24 hours

 ConditionsComfort  
Time TempWeatherWind HumidityBarometerVisibility
7:00 AM
Dec 18
46 °FLow clouds.2 mph93%29.97 "Hg13 mi
6:00 AM45 °FPassing clouds.2 mph93%29.96 "Hg14 mi
5:00 AM45 °FPassing clouds.1 mph92%29.96 "Hg14 mi
4:00 AM45 °FLow clouds.2 mph92%29.96 "Hg13 mi
3:00 AM44 °FLow clouds.1 mph95%29.95 "Hg6 mi
2:00 AM44 °FDrizzle. Low clouds.3 mph93%29.93 "Hg6 mi
1:00 AM43 °FPassing clouds.2 mph93%29.92 "HgN/A
12:00 AM42 °FDrizzle. Low clouds.2 mph95%29.90 "Hg4 mi
11:00 PM
Dec 17
40 °FPassing clouds.1 mph96%29.89 "Hg4 mi
10:00 PM40 °FLow clouds.1 mph97%29.88 "Hg1 mi
9:00 PM39 °FDrizzle. Low clouds.2 mph96%29.85 "Hg1 mi
8:00 PM38 °FPassing clouds.2 mph95%29.83 "Hg2 mi
7:00 PM37 °FPassing clouds.3 mph96%29.82 "Hg3 mi
6:00 PM37 °FDrizzle. Low clouds.3 mph95%29.82 "Hg1 mi
5:00 PM36 °FLight rain. Low clouds.3 mph94%29.80 "Hg3 mi
4:00 PM37 °FLight rain. Cloudy.N/A93%29.79 "Hg4 mi
3:00 PM37 °FLight rain. Scattered clouds.5 mph93%29.80 "Hg3 mi
2:00 PM37 °FLight rain. Scattered clouds.3 mph92%29.82 "Hg3 mi
1:00 PM38 °FLight rain. Passing clouds.3 mph87%29.84 "Hg6 mi
12:00 PM37 °FOvercast.3 mph84%N/AN/A
11:00 AMN/AOvercast.3 mphN/AN/A7 mi
10:00 AM35 °FOvercast.3 mph99%29.95 "Hg6 mi
9:00 AM34 °FFog.3 mph100%29.96 "Hg4 mi
8:00 AM33 °FFog.1 mph100%29.98 "Hg4 mi
Weather by CustomWeather, © 2014

See weather overviewHow to use our weather pages